AUA439 LOWW-LEBB

Flight info

Callsign AUA439
Flight time N/A
Altitude 36000
Route SOVIL DCT SITNI DCT BAGSI DCT MATIG DCT TRAUN DCT RAVED/N0442F380 L856 AKABI/N0440F370 L856 TRA DCT LUTIX DCT BENOT DCT NEMOS DCT NINTU DCT MEBAK DCT REPSI DCT LERGA DCT MINSO DCT NARAK DCT AGN DCT PIPOR L866 PPN M601 CEGAM
Aircraft A320/M-SDE3FGHIRWY/LB1

Departure

Time N/A
Airport Vienna International Airport (LOWW)

Arrival

Time 2026-04-29 09:57
Airport Bilbao Airport (LEBB)
Time Latitude Longitude Altitude Speed Heading
2026-04-29 08:51 45.79327 4.82268 36019 ft 422 kts 237°
2026-04-29 08:52 45.77649 4.78843 36019 ft 423 kts 237°
2026-04-29 08:52 45.74269 4.71966 36019 ft 423 kts 237°
2026-04-29 08:53 45.70853 4.65035 36134 ft 426 kts 237°
2026-04-29 08:53 45.69148 4.61584 36357 ft 425 kts 237°
2026-04-29 08:53 45.67445 4.58141 36572 ft 423 kts 236°
2026-04-29 08:53 45.65759 4.54735 36786 ft 422 kts 237°
2026-04-29 08:54 45.64058 4.51302 37003 ft 422 kts 236°
2026-04-29 08:54 45.62371 4.47900 37203 ft 422 kts 236°
2026-04-29 08:54 45.60680 4.44494 37392 ft 421 kts 236°
2026-04-29 08:54 45.58964 4.41042 37592 ft 421 kts 236°
2026-04-29 08:55 45.57277 4.37650 37786 ft 420 kts 236°
2026-04-29 08:55 45.55762 4.34609 37939 ft 420 kts 235°
2026-04-29 08:55 45.54071 4.31222 38015 ft 421 kts 235°
2026-04-29 08:56 45.51263 4.25606 38023 ft 420 kts 235°
2026-04-29 08:56 45.48126 4.19358 38024 ft 420 kts 235°
2026-04-29 08:57 45.44737 4.12613 38028 ft 419 kts 235°
2026-04-29 08:57 45.41346 4.05881 38031 ft 420 kts 235°
2026-04-29 08:58 45.37954 3.99160 38014 ft 420 kts 235°
2026-04-29 08:58 45.34557 3.92445 38013 ft 420 kts 235°
2026-04-29 08:59 45.31152 3.85728 38006 ft 420 kts 235°
2026-04-29 08:59 45.27737 3.79008 38009 ft 420 kts 235°
2026-04-29 09:00 45.24345 3.72300 38010 ft 420 kts 236°
2026-04-29 09:00 45.21009 3.65513 38015 ft 420 kts 236°
2026-04-29 09:01 45.17677 3.58740 38017 ft 419 kts 236°
2026-04-29 09:01 45.14338 3.51979 38018 ft 419 kts 236°
2026-04-29 09:02 45.11006 3.45254 38011 ft 418 kts 236°
2026-04-29 09:02 45.07676 3.38548 38002 ft 418 kts 236°
2026-04-29 09:03 45.04476 3.32118 38007 ft 418 kts 235°
2026-04-29 09:03 45.01784 3.26717 38012 ft 417 kts 235°
2026-04-29 09:04 44.98691 3.20528 38013 ft 417 kts 235°
2026-04-29 09:04 44.95352 3.13857 38015 ft 418 kts 235°
2026-04-29 09:05 44.91994 3.07169 38012 ft 417 kts 235°
2026-04-29 09:05 44.88677 3.00572 38010 ft 418 kts 235°
2026-04-29 09:06 44.85351 2.93975 38013 ft 418 kts 235°
2026-04-29 09:06 44.82178 2.87180 38010 ft 417 kts 237°
2026-04-29 09:07 44.79007 2.80307 37999 ft 418 kts 237°
2026-04-29 09:07 44.75841 2.73455 37990 ft 420 kts 237°
2026-04-29 09:08 44.72657 2.66572 37984 ft 420 kts 237°
2026-04-29 09:08 44.69483 2.59728 37976 ft 420 kts 237°
2026-04-29 09:09 44.66306 2.52897 37974 ft 419 kts 237°
2026-04-29 09:09 44.63103 2.46024 37968 ft 420 kts 237°
2026-04-29 09:10 44.59906 2.39179 37962 ft 420 kts 237°
2026-04-29 09:10 44.56776 2.32498 37959 ft 421 kts 236°
2026-04-29 09:11 44.53870 2.26305 37957 ft 421 kts 236°
2026-04-29 09:11 44.51051 2.20309 37952 ft 421 kts 236°
2026-04-29 09:12 44.48294 2.14457 37952 ft 422 kts 236°
2026-04-29 09:12 44.45064 2.07616 37948 ft 421 kts 236°
2026-04-29 09:13 44.41849 2.00825 37948 ft 421 kts 236°
2026-04-29 09:13 44.38627 1.94029 37936 ft 420 kts 236°
2026-04-29 09:14 44.35400 1.87241 37933 ft 421 kts 236°
2026-04-29 09:14 44.32150 1.80424 37930 ft 421 kts 236°
2026-04-29 09:15 44.28926 1.73659 37928 ft 421 kts 236°
2026-04-29 09:15 44.25756 1.66765 37929 ft 421 kts 237°
2026-04-29 09:16 44.22613 1.59905 37927 ft 420 kts 237°
2026-04-29 09:16 44.19479 1.53096 37920 ft 420 kts 237°
2026-04-29 09:17 44.16318 1.46250 37919 ft 421 kts 237°
2026-04-29 09:17 44.13163 1.39429 37916 ft 420 kts 237°
2026-04-29 09:18 44.10007 1.32626 37912 ft 420 kts 236°
2026-04-29 09:18 44.06836 1.25809 37904 ft 420 kts 236°
2026-04-29 09:19 44.04794 1.21428 37896 ft 420 kts 236°
2026-04-29 09:19 44.02001 1.15443 37886 ft 419 kts 236°
2026-04-29 09:20 43.98848 1.08705 37879 ft 419 kts 236°
2026-04-29 09:20 43.95670 1.01926 37881 ft 419 kts 236°
2026-04-29 09:21 43.92491 0.95157 37879 ft 419 kts 235°
2026-04-29 09:21 43.89314 0.88413 37883 ft 419 kts 236°
2026-04-29 09:22 43.86500 0.81971 37881 ft 421 kts 237°
2026-04-29 09:22 43.83516 0.75043 37874 ft 420 kts 237°
2026-04-29 09:23 43.80530 0.68122 37871 ft 420 kts 237°
2026-04-29 09:23 43.77551 0.61229 37872 ft 420 kts 237°
2026-04-29 09:24 43.74561 0.54327 37871 ft 420 kts 237°
2026-04-29 09:24 43.71567 0.47431 37871 ft 420 kts 237°
2026-04-29 09:25 43.68563 0.40528 37873 ft 420 kts 237°
2026-04-29 09:25 43.65612 0.33762 37867 ft 419 kts 237°
2026-04-29 09:26 43.62740 0.27196 37866 ft 420 kts 237°
2026-04-29 09:26 43.59848 0.20593 37865 ft 419 kts 237°
2026-04-29 09:27 43.56855 0.13779 37862 ft 419 kts 237°
2026-04-29 09:27 43.53836 0.06920 37862 ft 419 kts 237°
2026-04-29 09:28 43.50810 0.00061 37861 ft 419 kts 236°
2026-04-29 09:28 43.47783 -0.06780 37861 ft 418 kts 236°
2026-04-29 09:29 43.44754 -0.13610 37862 ft 419 kts 236°
2026-04-29 09:29 43.40200 -0.23852 37870 ft 419 kts 236°
2026-04-29 09:30 43.37163 -0.30662 37796 ft 419 kts 236°
2026-04-29 09:30 43.35643 -0.34066 37476 ft 417 kts 236°
2026-04-29 09:30 43.34114 -0.37487 37155 ft 414 kts 236°
2026-04-29 09:31 43.32634 -0.40793 36851 ft 410 kts 236°
2026-04-29 09:31 43.31141 -0.44128 36554 ft 407 kts 236°
2026-04-29 09:31 43.29670 -0.47403 36321 ft 405 kts 236°
2026-04-29 09:31 43.28186 -0.50705 36087 ft 405 kts 236°
2026-04-29 09:32 43.26720 -0.53963 35856 ft 405 kts 236°
2026-04-29 09:32 43.25220 -0.57294 35617 ft 405 kts 236°
2026-04-29 09:32 43.23749 -0.60557 35303 ft 405 kts 236°
2026-04-29 09:32 43.22279 -0.63816 34852 ft 405 kts 236°
2026-04-29 09:33 43.20792 -0.67106 34215 ft 405 kts 236°
2026-04-29 09:33 43.19541 -0.69873 33612 ft 406 kts 236°
2026-04-29 09:33 43.18049 -0.73166 32958 ft 404 kts 236°
2026-04-29 09:33 43.16581 -0.76407 32529 ft 401 kts 236°
2026-04-29 09:34 43.15113 -0.79644 32080 ft 398 kts 235°
2026-04-29 09:34 43.13673 -0.82819 31630 ft 395 kts 235°
2026-04-29 09:34 43.12225 -0.86001 31176 ft 392 kts 235°
2026-04-29 09:34 43.10795 -0.89146 30710 ft 389 kts 235°
2026-04-29 09:35 43.09390 -0.92227 30257 ft 385 kts 235°
2026-04-29 09:35 43.07971 -0.95343 29784 ft 382 kts 236°
2026-04-29 09:35 43.06582 -0.98389 29315 ft 379 kts 235°
2026-04-29 09:35 43.05205 -1.01405 28848 ft 375 kts 235°
2026-04-29 09:36 43.03815 -1.04439 28368 ft 372 kts 235°
2026-04-29 09:36 43.02464 -1.07387 27895 ft 369 kts 236°
2026-04-29 09:36 43.01107 -1.10348 27421 ft 366 kts 236°
2026-04-29 09:36 42.99768 -1.13258 26980 ft 362 kts 235°
2026-04-29 09:37 42.98441 -1.16145 26547 ft 358 kts 235°
2026-04-29 09:37 42.97125 -1.19005 26108 ft 355 kts 235°
2026-04-29 09:37 42.95822 -1.21829 25657 ft 352 kts 235°
2026-04-29 09:37 42.94515 -1.24667 25200 ft 349 kts 235°
2026-04-29 09:38 42.93235 -1.27441 24751 ft 347 kts 235°
2026-04-29 09:38 42.91964 -1.30194 24309 ft 345 kts 235°
2026-04-29 09:38 42.90686 -1.32958 23858 ft 343 kts 235°
2026-04-29 09:38 42.89424 -1.35684 23425 ft 341 kts 235°
2026-04-29 09:39 42.88329 -1.38049 23048 ft 340 kts 235°
2026-04-29 09:39 42.87136 -1.40626 22645 ft 338 kts 235°
2026-04-29 09:39 42.85887 -1.43319 22213 ft 337 kts 235°
2026-04-29 09:39 42.84633 -1.46019 21773 ft 335 kts 235°
2026-04-29 09:40 42.83395 -1.48684 21340 ft 334 kts 235°
2026-04-29 09:40 42.82159 -1.51342 20908 ft 333 kts 235°
2026-04-29 09:40 42.80924 -1.53995 20475 ft 332 kts 235°
2026-04-29 09:40 42.79686 -1.56652 20032 ft 331 kts 235°
2026-04-29 09:41 42.78468 -1.59263 19589 ft 330 kts 235°
2026-04-29 09:41 42.77237 -1.61900 19145 ft 329 kts 235°
2026-04-29 09:41 42.76014 -1.64517 18703 ft 328 kts 235°
2026-04-29 09:41 42.74903 -1.67092 18264 ft 330 kts 244°
2026-04-29 09:42 42.74441 -1.69918 17846 ft 336 kts 265°
2026-04-29 09:42 42.74811 -1.73035 17411 ft 343 kts 287°
2026-04-29 09:42 42.75968 -1.75903 16986 ft 347 kts 299°
2026-04-29 09:42 42.77280 -1.78625 16552 ft 346 kts 299°
2026-04-29 09:43 42.78612 -1.81384 16127 ft 345 kts 299°
2026-04-29 09:43 42.79903 -1.84087 15704 ft 343 kts 298°
2026-04-29 09:43 42.81191 -1.86813 15286 ft 342 kts 298°
2026-04-29 09:43 42.82460 -1.89513 14872 ft 340 kts 298°
2026-04-29 09:44 42.83726 -1.92217 14451 ft 339 kts 298°
2026-04-29 09:44 42.84993 -1.94924 14030 ft 338 kts 298°
2026-04-29 09:44 42.86242 -1.97589 13610 ft 336 kts 298°
2026-04-29 09:44 42.87500 -2.00276 13188 ft 334 kts 298°
2026-04-29 09:45 42.88749 -2.02946 12768 ft 331 kts 298°
2026-04-29 09:45 42.89974 -2.05568 12359 ft 329 kts 298°
2026-04-29 09:45 42.91197 -2.08191 11972 ft 324 kts 298°
2026-04-29 09:45 42.92377 -2.10721 11879 ft 317 kts 298°
2026-04-29 09:46 42.93540 -2.13214 11767 ft 305 kts 297°
2026-04-29 09:46 42.94668 -2.15638 11500 ft 299 kts 297°
2026-04-29 09:46 42.95761 -2.17989 11121 ft 297 kts 297°
2026-04-29 09:46 42.96872 -2.20386 10726 ft 296 kts 297°
2026-04-29 09:47 42.97998 -2.22729 10342 ft 295 kts 301°
2026-04-29 09:47 42.99271 -2.24903 9947 ft 297 kts 307°
2026-04-29 09:47 43.00689 -2.26975 9580 ft 296 kts 308°
2026-04-29 09:47 43.02111 -2.28998 9203 ft 295 kts 309°
2026-04-29 09:48 43.03524 -2.31006 8808 ft 295 kts 309°
2026-04-29 09:48 43.04932 -2.33010 8421 ft 294 kts 309°
2026-04-29 09:48 43.06336 -2.35018 8057 ft 293 kts 309°
2026-04-29 09:48 43.07742 -2.37033 7672 ft 293 kts 309°
2026-04-29 09:49 43.09142 -2.39039 7282 ft 292 kts 310°
2026-04-29 09:49 43.10558 -2.41070 6862 ft 292 kts 310°
2026-04-29 09:49 43.11962 -2.43095 6461 ft 291 kts 308°
2026-04-29 09:49 43.13159 -2.45261 6228 ft 281 kts 298°
2026-04-29 09:50 43.14090 -2.47551 6054 ft 270 kts 293°
2026-04-29 09:50 43.14909 -2.49775 5986 ft 256 kts 292°
2026-04-29 09:50 43.15689 -2.51913 5985 ft 242 kts 291°
2026-04-29 09:50 43.16427 -2.53933 5980 ft 239 kts 292°
2026-04-29 09:51 43.17174 -2.55966 5938 ft 236 kts 292°
2026-04-29 09:51 43.17946 -2.57942 5641 ft 237 kts 294°
2026-04-29 09:51 43.18724 -2.59915 5316 ft 237 kts 294°
2026-04-29 09:51 43.19488 -2.61917 5082 ft 233 kts 293°
2026-04-29 09:52 43.20212 -2.63869 4770 ft 227 kts 293°
2026-04-29 09:52 43.20880 -2.65706 4444 ft 221 kts 292°
2026-04-29 09:52 43.21469 -2.67337 4154 ft 216 kts 292°
2026-04-29 09:52 43.22117 -2.69133 3920 ft 203 kts 292°
2026-04-29 09:53 43.22737 -2.70846 3607 ft 198 kts 293°
2026-04-29 09:53 43.23337 -2.72504 3283 ft 192 kts 293°
2026-04-29 09:53 43.23915 -2.74100 2984 ft 186 kts 294°
2026-04-29 09:53 43.24484 -2.75664 2704 ft 180 kts 295°
2026-04-29 09:54 43.25032 -2.77171 2464 ft 176 kts 295°
2026-04-29 09:54 43.25581 -2.78676 2194 ft 175 kts 295°
2026-04-29 09:54 43.26125 -2.80168 1935 ft 175 kts 295°
2026-04-29 09:54 43.26666 -2.81652 1684 ft 174 kts 296°
2026-04-29 09:55 43.27198 -2.83107 1422 ft 164 kts 296°
2026-04-29 09:55 43.27685 -2.84438 1174 ft 152 kts 296°
2026-04-29 09:55 43.28140 -2.85680 943 ft 141 kts 296°
2026-04-29 09:55 43.28580 -2.86872 727 ft 139 kts 295°
2026-04-29 09:56 43.29001 -2.88049 544 ft 138 kts 296°
2026-04-29 09:56 43.29433 -2.89224 324 ft 137 kts 296°
2026-04-29 09:56 43.29859 -2.90381 145 ft 133 kts 297°
2026-04-29 09:56 43.30207 -2.91328 137 ft 71 kts 297°
2026-04-29 09:57 43.30341 -2.91691 134 ft 34 kts 296°
2026-04-29 09:57 43.30445 -2.91901 131 ft 26 kts 315°
2026-04-29 09:57 43.30546 -2.92006 130 ft 11 kts 327°
2026-04-29 09:57 43.30597 -2.92046 131 ft 7 kts 351°
2026-04-29 09:58 43.30635 -2.92018 132 ft 6 kts 70°
2026-04-29 09:58 43.30624 -2.91958 134 ft 8 kts 114°
2026-04-29 09:58 43.30592 -2.91868 135 ft 12 kts 116°
2026-04-29 09:58 43.30549 -2.91751 137 ft 15 kts 117°
2026-04-29 09:59 43.30497 -2.91611 140 ft 18 kts 117°
2026-04-29 09:59 43.30436 -2.91442 141 ft 21 kts 116°
2026-04-29 09:59 43.30368 -2.91259 143 ft 21 kts 117°
2026-04-29 09:59 43.30315 -2.91115 144 ft 9 kts 116°
2026-04-29 10:00 43.30318 -2.91035 145 ft 9 kts 43°
2026-04-29 10:00 43.30373 -2.90995 147 ft 8 kts 25°
2026-04-29 10:00 43.30403 -2.90944 149 ft 6 kts 81°
2026-04-29 10:00 43.30405 -2.90886 150 ft 5 kts 87°
2026-04-29 10:01 43.30407 -2.90831 151 ft 6 kts 88°
2026-04-29 10:01 43.30395 -2.90767 151 ft 7 kts 118°
2026-04-29 10:01 43.30389 -2.90729 151 ft 3 kts 69°
2026-04-29 10:01 43.30407 -2.90711 151 ft 2 kts 27°
2026-04-29 10:02 43.30418 -2.90703 152 ft 1 kts 26°
2026-04-29 10:02 43.30426 -2.90698 152 ft 0 kts 27°
2026-04-29 10:02 43.30432 -2.90693 153 ft 1 kts 26°
2026-04-29 10:02 43.30441 -2.90687 153 ft 0 kts 26°
2026-04-29 10:03 43.30442 -2.90687 153 ft 0 kts 26°